�v������,�v���f�[�^(L),����(MJ),�����t���O
2004/3/1 0:00,0,0,0
2004/3/1 0:15,0,0,0
2004/3/1 0:30,0,0,0
2004/3/1 0:45,0,0,0
2004/3/1 1:00,0,0,0
2004/3/1 1:15,0,0,0
2004/3/1 1:30,0,0,0
2004/3/1 1:45,0,0,0
2004/3/1 2:00,0,0,0
2004/3/1 2:15,0,0,0
2004/3/1 2:30,0,0,0
2004/3/1 2:45,0,0,0
2004/3/1 3:00,0,0,0
2004/3/1 3:15,0,0,0
2004/3/1 3:30,0,0,0
2004/3/1 3:45,0,0,0
2004/3/1 4:00,0,0,0
2004/3/1 4:15,0,0,0
2004/3/1 4:30,0,0,0
2004/3/1 4:45,0,0,0
2004/3/1 5:00,0,0,0
2004/3/1 5:15,0,0,0
2004/3/1 5:30,0,0,0
2004/3/1 5:45,0,0,0
2004/3/1 6:00,0,0,0
2004/3/1 6:15,0,0,0
2004/3/1 6:30,15.97855139,0.595999986,0
2004/3/1 6:45,28.55227661,1.064999967,0
2004/3/1 7:00,28.55227661,1.064999967,0
2004/3/1 7:15,27.26541424,1.016999989,0
2004/3/1 7:30,0,0,0
2004/3/1 7:45,0,0,0
2004/3/1 8:00,0,0,0
2004/3/1 8:15,0,0,0
2004/3/1 8:30,0,0,0
2004/3/1 8:45,0,0,0
2004/3/1 9:00,0,0,0
2004/3/1 9:15,0,0,0
2004/3/1 9:30,0,0,0
2004/3/1 9:45,0,0,0
2004/3/1 10:00,0,0,0
2004/3/1 10:15,0,0,0
2004/3/1 10:30,0,0,0
2004/3/1 10:45,0,0,0
2004/3/1 11:00,0,0,0
2004/3/1 11:15,0,0,0
2004/3/1 11:30,0,0,0
2004/3/1 11:45,0,0,0
2004/3/1 12:00,0,0,0
2004/3/1 12:15,0,0,0
2004/3/1 12:30,0,0,0
2004/3/1 12:45,0,0,0
2004/3/1 13:00,0,0,0
2004/3/1 13:15,0,0,0
2004/3/1 13:30,0,0,0
2004/3/1 13:45,0,0,0
2004/3/1 14:00,0,0,0
2004/3/1 14:15,0,0,0
2004/3/1 14:30,0,0,0
2004/3/1 14:45,0,0,0
2004/3/1 15:00,0,0,0
2004/3/1 15:15,0,0,0
2004/3/1 15:30,0,0,0
2004/3/1 15:45,0,0,0
2004/3/1 16:00,0,0,0
2004/3/1 16:15,0,0,0
2004/3/1 16:30,0,0,0
2004/3/1 16:45,0,0,0
2004/3/1 17:00,0,0,0
2004/3/1 17:15,0,0,0
2004/3/1 17:30,0,0,0
2004/3/1 17:45,0,0,0
2004/3/1 18:00,16.72922182,0.623999983,0
2004/3/1 18:15,28.55227661,1.064999967,0
2004/3/1 18:30,28.55227661,1.064999967,0
2004/3/1 18:45,28.55227661,1.064999967,0
2004/3/1 19:00,28.55227661,1.064999967,0
2004/3/1 19:15,28.55227661,1.064999967,0
2004/3/1 19:30,28.55227661,1.064999967,0
2004/3/1 19:45,28.55227661,1.064999967,0
2004/3/1 20:00,28.55227661,1.064999967,0
2004/3/1 20:15,28.55227661,1.064999967,0
2004/3/1 20:30,28.55227661,1.064999967,0
2004/3/1 20:45,28.55227661,1.064999967,0
2004/3/1 21:00,28.55227661,1.064999967,0
2004/3/1 21:15,28.55227661,1.064999967,0
2004/3/1 21:30,28.55227661,1.064999967,0
2004/3/1 21:45,28.55227661,1.064999967,0
2004/3/1 22:00,23.13672876,0.86299999,0
2004/3/1 22:15,28.55227661,1.064999967,0
2004/3/1 22:30,28.55227661,1.064999967,0
2004/3/1 22:45,28.55227661,1.064999967,0
2004/3/1 23:00,28.55227661,1.064999967,0
2004/3/1 23:15,28.55227661,1.064999967,0
2004/3/1 23:30,28.55227661,1.064999967,0
2004/3/1 23:45,28.55227661,1.064999967,0
2004/3/2 0:00,28.49865723,1.062999963,0
2004/3/2 0:15,28.47184849,1.061999976,0
2004/3/2 0:30,18.82037449,0.701999992,0
2004/3/2 0:45,0,0,0
2004/3/2 1:00,0,0,0
2004/3/2 1:15,0,0,0
2004/3/2 1:30,0,0,0
2004/3/2 1:45,0,0,0
2004/3/2 2:00,0,0,0
2004/3/2 2:15,0,0,0
2004/3/2 2:30,0,0,0
2004/3/2 2:45,0,0,0
2004/3/2 3:00,0,0,0
2004/3/2 3:15,0,0,0
2004/3/2 3:30,0,0,0
2004/3/2 3:45,0,0,0
2004/3/2 4:00,0,0,0
2004/3/2 4:15,0,0,0
2004/3/2 4:30,0,0,0
2004/3/2 4:45,0,0,0
2004/3/2 5:00,0,0,0
2004/3/2 5:15,0,0,0
2004/3/2 5:30,0,0,0
2004/3/2 5:45,0,0,0
2004/3/2 6:00,0,0,0
2004/3/2 6:15,0,0,0
2004/3/2 6:30,2.064343214,0.077,0
2004/3/2 6:45,28.55227661,1.064999967,0
2004/3/2 7:00,28.55227661,1.064999967,0
2004/3/2 7:15,27.10455608,1.010999977,0
2004/3/2 7:30,0,0,0
2004/3/2 7:45,0,0,0
2004/3/2 8:00,0,0,0
2004/3/2 8:15,0,0,0
2004/3/2 8:30,0,0,0
2004/3/2 8:45,0,0,0
2004/3/2 9:00,0,0,0
2004/3/2 9:15,0,0,0
2004/3/2 9:30,0,0,0
2004/3/2 9:45,0,0,0
2004/3/2 10:00,0,0,0
2004/3/2 10:15,0,0,0
2004/3/2 10:30,0,0,0
2004/3/2 10:45,0,0,0
2004/3/2 11:00,0,0,0
2004/3/2 11:15,0,0,0
2004/3/2 11:30,0,0,0
2004/3/2 11:45,0,0,0
2004/3/2 12:00,0,0,0
2004/3/2 12:15,0,0,0
2004/3/2 12:30,0,0,0
2004/3/2 12:45,0,0,0
2004/3/2 13:00,0,0,0
2004/3/2 13:15,0,0,0
2004/3/2 13:30,0,0,0
2004/3/2 13:45,0,0,0
2004/3/2 14:00,0,0,0
2004/3/2 14:15,0,0,0
2004/3/2 14:30,0,0,0
2004/3/2 14:45,0,0,0
2004/3/2 15:00,0,0,0
2004/3/2 15:15,0,0,0
2004/3/2 15:30,0,0,0
2004/3/2 15:45,0,0,0
2004/3/2 16:00,0,0,0
2004/3/2 16:15,0,0,0
2004/3/2 16:30,0,0,0
2004/3/2 16:45,0,0,0
2004/3/2 17:00,0,0,0
2004/3/2 17:15,0,0,0
2004/3/2 17:30,0,0,0
2004/3/2 17:45,0,0,0
2004/3/2 18:00,0,0,0
2004/3/2 18:15,0,0,0
2004/3/2 18:30,0,0,0
2004/3/2 18:45,7.131367207,0.266000003,0
2004/3/2 19:00,28.55227661,1.064999967,0
2004/3/2 19:15,28.52546787,1.06399998,0
2004/3/2 19:30,27.69436932,1.032999992,0
2004/3/2 19:45,27.21179581,1.014999986,0
2004/3/2 20:00,26.48793411,0.987999975,0
2004/3/2 20:15,25.71045589,0.959000021,0
2004/3/2 20:30,24.66487932,0.919999987,0
2004/3/2 20:45,24.90616608,0.92899999,0
2004/3/2 21:00,24.42359352,0.911000014,0
2004/3/2 21:15,24.42359257,0.910999983,0
2004/3/2 21:30,24.18230629,0.90200001,0
2004/3/2 21:45,18.15013361,0.676999986,0
2004/3/2 22:00,0,0,0
2004/3/2 22:15,10.83109844,0.403999988,0
2004/3/2 22:30,27.98927593,1.043999999,0
2004/3/2 22:45,28.49865723,1.062999963,0
2004/3/2 23:00,28.4182291,1.059999972,0
2004/3/2 23:15,28.28418064,1.054999977,0
2004/3/2 23:30,28.17694283,1.050999999,0
2004/3/2 23:45,21.58176899,0.805000007,0
2004/3/3 0:00,0,0,0
2004/3/3 0:15,0,0,0
2004/3/3 0:30,0,0,0
2004/3/3 0:45,0,0,0
2004/3/3 1:00,0,0,0
2004/3/3 1:15,0,0,0
2004/3/3 1:30,0,0,0
2004/3/3 1:45,0,0,0
2004/3/3 2:00,0,0,0
2004/3/3 2:15,0,0,0
2004/3/3 2:30,0,0,0
2004/3/3 2:45,0,0,0
2004/3/3 3:00,0,0,0
2004/3/3 3:15,0,0,0
2004/3/3 3:30,0,0,0
2004/3/3 3:45,0,0,0
2004/3/3 4:00,0,0,0
2004/3/3 4:15,0,0,0
2004/3/3 4:30,0,0,0
2004/3/3 4:45,0,0,0
2004/3/3 5:00,0,0,0
2004/3/3 5:15,0,0,0
2004/3/3 5:30,0,0,0
2004/3/3 5:45,0,0,0
2004/3/3 6:00,0,0,0
2004/3/3 6:15,5.898123264,0.219999999,0
2004/3/3 6:30,28.55227661,1.064999967,0
2004/3/3 6:45,28.55227661,1.064999967,0
2004/3/3 7:00,28.55227661,1.064999967,0
2004/3/3 7:15,29.14208984,1.086999982,0
2004/3/3 7:30,0,0,0
2004/3/3 7:45,0,0,0
2004/3/3 8:00,0,0,0
2004/3/3 8:15,0,0,0
2004/3/3 8:30,0,0,0
2004/3/3 8:45,0,0,0
2004/3/3 9:00,0,0,0
2004/3/3 9:15,0,0,0
2004/3/3 9:30,0,0,0
2004/3/3 9:45,0,0,0
2004/3/3 10:00,0,0,0
2004/3/3 10:15,0,0,0
2004/3/3 10:30,0,0,0
2004/3/3 10:45,0,0,0
2004/3/3 11:00,0,0,0
2004/3/3 11:15,0,0,0
2004/3/3 11:30,0,0,0
2004/3/3 11:45,0,0,0
2004/3/3 12:00,0,0,0
2004/3/3 12:15,0,0,0
2004/3/3 12:30,0,0,0
2004/3/3 12:45,0,0,0
2004/3/3 13:00,0,0,0
2004/3/3 13:15,0,0,0
2004/3/3 13:30,0,0,0
2004/3/3 13:45,0,0,0
2004/3/3 14:00,0,0,0
2004/3/3 14:15,0,0,0
2004/3/3 14:30,0,0,0
2004/3/3 14:45,0,0,0
2004/3/3 15:00,0,0,0
2004/3/3 15:15,0,0,0
2004/3/3 15:30,0,0,0
2004/3/3 15:45,0,0,0
2004/3/3 16:00,0,0,0
2004/3/3 16:15,0,0,0
2004/3/3 16:30,0,0,0
2004/3/3 16:45,0,0,0
2004/3/3 17:00,0,0,0
2004/3/3 17:15,0,0,0
2004/3/3 17:30,0,0,0
2004/3/3 17:45,0,0,0
2004/3/3 18:00,0,0,0
2004/3/3 18:15,0,0,0
2004/3/3 18:30,0,0,0
2004/3/3 18:45,0,0,0
2004/3/3 19:00,0,0,0
2004/3/3 19:15,0,0,0
2004/3/3 19:30,0,0,0
2004/3/3 19:45,0,0,0
2004/3/3 20:00,0,0,0
2004/3/3 20:15,26.51474428,0.988999992,0
2004/3/3 20:30,28.55227661,1.064999967,0
2004/3/3 20:45,28.55227661,1.064999967,0
2004/3/3 21:00,28.55227661,1.064999967,0
2004/3/3 21:15,28.04289532,1.046000004,0
2004/3/3 21:30,25.04021359,0.933999986,0
2004/3/3 21:45,25.36192942,0.94599998,0
2004/3/3 22:00,26.78284168,0.998999983,0
2004/3/3 22:15,25.97855282,0.969000012,0
2004/3/3 22:30,27.5603199,1.027999967,0
2004/3/3 22:45,28.06970501,1.046999991,0
2004/3/3 23:00,28.52546787,1.06399998,0
2004/3/3 23:15,28.23056316,1.053000003,0
2004/3/3 23:30,28.55227661,1.064999967,0
2004/3/3 23:45,28.23056221,1.052999973,0
2004/3/4 0:00,28.52546787,1.06399998,0
2004/3/4 0:15,28.09651375,1.047999978,0
2004/3/4 0:30,22.19839192,0.828000009,0
2004/3/4 0:45,0,0,0
2004/3/4 1:00,0,0,0
2004/3/4 1:15,0,0,0
2004/3/4 1:30,0,0,0
2004/3/4 1:45,0,0,0
2004/3/4 2:00,0,0,0
2004/3/4 2:15,0,0,0
2004/3/4 2:30,0,0,0
2004/3/4 2:45,0,0,0
2004/3/4 3:00,0,0,0
2004/3/4 3:15,0,0,0
2004/3/4 3:30,0,0,0
2004/3/4 3:45,0,0,0
2004/3/4 4:00,0,0,0
2004/3/4 4:15,0,0,0
2004/3/4 4:30,0,0,0
2004/3/4 4:45,0,0,0
2004/3/4 5:00,0,0,0
2004/3/4 5:15,0,0,0
2004/3/4 5:30,0,0,0
2004/3/4 5:45,0,0,0
2004/3/4 6:00,0,0,0
2004/3/4 6:15,0,0,0
2004/3/4 6:30,10.37533444,0.386999991,0
2004/3/4 6:45,28.55227661,1.064999967,0
2004/3/4 7:00,28.55227661,1.064999967,0
2004/3/4 7:15,15.924932,0.593999982,0
2004/3/4 7:30,0,0,0
2004/3/4 7:45,0,0,0
2004/3/4 8:00,0,0,0
2004/3/4 8:15,0,0,0
2004/3/4 8:30,0,0,0
2004/3/4 8:45,0,0,0
2004/3/4 9:00,0,0,0
2004/3/4 9:15,0,0,0
2004/3/4 9:30,0,0,0
2004/3/4 9:45,0,0,0
2004/3/4 10:00,0,0,0
2004/3/4 10:15,0,0,0
2004/3/4 10:30,0,0,0
2004/3/4 10:45,0,0,0
2004/3/4 11:00,0,0,0
2004/3/4 11:15,0,0,0
2004/3/4 11:30,0,0,0
2004/3/4 11:45,0,0,0
2004/3/4 12:00,0,0,0
2004/3/4 12:15,0,0,0
2004/3/4 12:30,0,0,0
2004/3/4 12:45,0,0,0
2004/3/4 13:00,0,0,0
2004/3/4 13:15,0,0,0
2004/3/4 13:30,0,0,0
2004/3/4 13:45,0,0,0
2004/3/4 14:00,0,0,0
2004/3/4 14:15,0,0,0
2004/3/4 14:30,0,0,0
2004/3/4 14:45,0,0,0
2004/3/4 15:00,0,0,0
2004/3/4 15:15,0,0,0
2004/3/4 15:30,0,0,0
2004/3/4 15:45,0,0,0
2004/3/4 16:00,0,0,0
2004/3/4 16:15,0,0,0
2004/3/4 16:30,0,0,0
2004/3/4 16:45,0,0,0
2004/3/4 17:00,0,0,0
2004/3/4 17:15,0,0,0
2004/3/4 17:30,0,0,0
2004/3/4 17:45,0,0,0
2004/3/4 18:00,0,0,0
2004/3/4 18:15,0,0,0
2004/3/4 18:30,0,0,0
2004/3/4 18:45,0,0,0
2004/3/4 19:00,0,0,0
2004/3/4 19:15,0,0,0
2004/3/4 19:30,11.17962384,0.416999988,0
2004/3/4 19:45,28.55227661,1.064999967,0
2004/3/4 20:00,28.55227661,1.064999967,0
2004/3/4 20:15,28.55227661,1.064999967,0
2004/3/4 20:30,28.55227661,1.064999967,0
2004/3/4 20:45,28.55227661,1.064999967,0
2004/3/4 21:00,28.55227661,1.064999967,0
2004/3/4 21:15,28.55227661,1.064999967,0
2004/3/4 21:30,28.52546787,1.06399998,0
2004/3/4 21:45,27.39946461,1.022000015,0
2004/3/4 22:00,26.00536251,0.969999998,0
2004/3/4 22:15,28.55227661,1.064999967,0
2004/3/4 22:30,28.55227661,1.064999967,0
2004/3/4 22:45,28.55227661,1.064999967,0
2004/3/4 23:00,28.55227661,1.064999967,0
2004/3/4 23:15,28.55227661,1.064999967,0
2004/3/4 23:30,28.55227661,1.064999967,0
2004/3/4 23:45,18.44503975,0.687999993,0
2004/3/5 0:00,0,0,0
2004/3/5 0:15,0,0,0
2004/3/5 0:30,0,0,0
2004/3/5 0:45,0,0,0
2004/3/5 1:00,0,0,0
2004/3/5 1:15,0,0,0
2004/3/5 1:30,0,0,0
2004/3/5 1:45,0,0,0
2004/3/5 2:00,0,0,0
2004/3/5 2:15,0,0,0
2004/3/5 2:30,0,0,0
2004/3/5 2:45,0,0,0
2004/3/5 3:00,0,0,0
2004/3/5 3:15,0,0,0
2004/3/5 3:30,0,0,0
2004/3/5 3:45,0,0,0
2004/3/5 4:00,0,0,0
2004/3/5 4:15,0,0,0
2004/3/5 4:30,0,0,0
2004/3/5 4:45,0,0,0
2004/3/5 5:00,0,0,0
2004/3/5 5:15,0,0,0
2004/3/5 5:30,0,0,0
2004/3/5 5:45,0,0,0
2004/3/5 6:00,0,0,0
2004/3/5 6:15,0,0,0
2004/3/5 6:30,0,0,0
2004/3/5 6:45,10.37533444,0.386999991,0
2004/3/5 7:00,28.55227661,1.064999967,0
2004/3/5 7:15,25.87131214,0.964999973,0
2004/3/5 7:30,0,0,0
2004/3/5 7:45,0,0,0
2004/3/5 8:00,0,0,0
2004/3/5 8:15,0,0,0
2004/3/5 8:30,0,0,0
2004/3/5 8:45,0,0,0
2004/3/5 9:00,0,0,0
2004/3/5 9:15,0,0,0
2004/3/5 9:30,0,0,0
2004/3/5 9:45,0,0,0
2004/3/5 10:00,0,0,0
2004/3/5 10:15,0,0,0
2004/3/5 10:30,0,0,0
2004/3/5 10:45,0,0,0
2004/3/5 11:00,0,0,0
2004/3/5 11:15,0,0,0
2004/3/5 11:30,0,0,0
2004/3/5 11:45,0,0,0
2004/3/5 12:00,0,0,0
2004/3/5 12:15,0,0,0
2004/3/5 12:30,0,0,0
2004/3/5 12:45,0,0,0
2004/3/5 13:00,0,0,0
2004/3/5 13:15,0,0,0
2004/3/5 13:30,0,0,0
2004/3/5 13:45,0,0,0
2004/3/5 14:00,0,0,0
2004/3/5 14:15,0,0,0
2004/3/5 14:30,0,0,0
2004/3/5 14:45,0,0,0
2004/3/5 15:00,0,0,0
2004/3/5 15:15,0,0,0
2004/3/5 15:30,0,0,0
2004/3/5 15:45,0,0,0
2004/3/5 16:00,0,0,0
2004/3/5 16:15,0,0,0
2004/3/5 16:30,0,0,0
2004/3/5 16:45,0,0,0
2004/3/5 17:00,0,0,0
2004/3/5 17:15,0,0,0
2004/3/5 17:30,0,0,0
2004/3/5 17:45,0,0,0
2004/3/5 18:00,0,0,0
2004/3/5 18:15,0,0,0
2004/3/5 18:30,0,0,0
2004/3/5 18:45,0,0,0
2004/3/5 19:00,0,0,0
2004/3/5 19:15,1.420911551,0.052999999,0
2004/3/5 19:30,28.55227661,1.064999967,0
2004/3/5 19:45,28.33780003,1.056999981,0
2004/3/5 20:00,28.47184849,1.061999976,0
2004/3/5 20:15,28.55227661,1.064999967,0
2004/3/5 20:30,28.55227661,1.064999967,0
2004/3/5 20:45,28.55227661,1.064999967,0
2004/3/5 21:00,28.55227661,1.064999967,0
2004/3/5 21:15,28.55227661,1.064999967,0
2004/3/5 21:30,28.4182291,1.059999972,0
2004/3/5 21:45,28.49865723,1.062999963,0
2004/3/5 22:00,27.88203907,1.040000022,0
2004/3/5 22:15,28.06970501,1.046999991,0
2004/3/5 22:30,25.63002586,0.956000001,0
2004/3/5 22:45,25.36192894,0.94599998,0
2004/3/5 23:00,24.87935734,0.928000003,0
2004/3/5 23:15,25.79088402,0.961999982,0
2004/3/5 23:30,21.42091227,0.799000025,0
2004/3/5 23:45,21.20643473,0.791000008,0
2004/3/6 0:00,20.26809597,0.755999983,0
2004/3/6 0:15,20.29490566,0.757,0
2004/3/6 0:30,20.10723829,0.749999985,0
2004/3/6 0:45,0,0,0
2004/3/6 1:00,0,0,0
2004/3/6 1:15,0,0,0
2004/3/6 1:30,0,0,0
2004/3/6 1:45,0,0,0
2004/3/6 2:00,0,0,0
2004/3/6 2:15,0,0,0
2004/3/6 2:30,0,0,0
2004/3/6 2:45,0,0,0
2004/3/6 3:00,0,0,0
2004/3/6 3:15,0,0,0
2004/3/6 3:30,0,0,0
2004/3/6 3:45,0,0,0
2004/3/6 4:00,0,0,0
2004/3/6 4:15,0,0,0
2004/3/6 4:30,0,0,0
2004/3/6 4:45,0,0,0
2004/3/6 5:00,0,0,0
2004/3/6 5:15,0,0,0
2004/3/6 5:30,0,0,0
2004/3/6 5:45,0,0,0
2004/3/6 6:00,0,0,0
2004/3/6 6:15,0,0,0
2004/3/6 6:30,0,0,0
2004/3/6 6:45,0,0,0
2004/3/6 7:00,0,0,0
2004/3/6 7:15,25.97855091,0.968999981,0
2004/3/6 7:30,28.55227661,1.064999967,0
2004/3/6 7:45,28.55227661,1.064999967,0
2004/3/6 8:00,14.7184987,0.54900001,0
2004/3/6 8:15,0,0,0
2004/3/6 8:30,0,0,0
2004/3/6 8:45,0,0,0
2004/3/6 9:00,0,0,0
2004/3/6 9:15,0,0,0
2004/3/6 9:30,0,0,0
2004/3/6 9:45,0,0,0
2004/3/6 10:00,0,0,0
2004/3/6 10:15,0,0,0
2004/3/6 10:30,0,0,0
2004/3/6 10:45,0,0,0
2004/3/6 11:00,0,0,0
2004/3/6 11:15,0,0,0
2004/3/6 11:30,0,0,0
2004/3/6 11:45,0,0,0
2004/3/6 12:00,0,0,0
2004/3/6 12:15,0,0,0
2004/3/6 12:30,0,0,0
2004/3/6 12:45,0,0,0
2004/3/6 13:00,0,0,0
2004/3/6 13:15,0,0,0
2004/3/6 13:30,0,0,0
2004/3/6 13:45,0,0,0
2004/3/6 14:00,0,0,0
2004/3/6 14:15,0,0,0
2004/3/6 14:30,0,0,0
2004/3/6 14:45,0,0,0
2004/3/6 15:00,0,0,0
2004/3/6 15:15,0,0,0
2004/3/6 15:30,0,0,0
2004/3/6 15:45,0,0,0
2004/3/6 16:00,0,0,0
2004/3/6 16:15,0,0,0
2004/3/6 16:30,0,0,0
2004/3/6 16:45,0,0,0
2004/3/6 17:00,0,0,0
2004/3/6 17:15,0,0,0
2004/3/6 17:30,0,0,0
2004/3/6 17:45,0,0,0
2004/3/6 18:00,0,0,0
2004/3/6 18:15,0,0,0
2004/3/6 18:30,0,0,0
2004/3/6 18:45,0,0,0
2004/3/6 19:00,0,0,0
2004/3/6 19:15,0,0,0
2004/3/6 19:30,0,0,0
2004/3/6 19:45,0,0,0
2004/3/6 20:00,0,0,0
2004/3/6 20:15,0,0,0
2004/3/6 20:30,0,0,0
2004/3/6 20:45,0,0,0
2004/3/6 21:00,0,0,0
2004/3/6 21:15,0,0,0
2004/3/6 21:30,0,0,0
2004/3/6 21:45,0,0,0
2004/3/6 22:00,0,0,0
2004/3/6 22:15,18.44503975,0.687999993,0
2004/3/6 22:30,28.55227661,1.064999967,0
2004/3/6 22:45,28.55227661,1.064999967,0
2004/3/6 23:00,28.55227661,1.064999967,0
2004/3/6 23:15,28.55227661,1.064999967,0
2004/3/6 23:30,28.55227661,1.064999967,0
2004/3/6 23:45,28.55227661,1.064999967,0
2004/3/7 0:00,19.51742554,0.727999985,0
2004/3/7 0:15,0,0,0
2004/3/7 0:30,0,0,0
2004/3/7 0:45,0,0,0
2004/3/7 1:00,0,0,0
2004/3/7 1:15,0,0,0
2004/3/7 1:30,0,0,0
2004/3/7 1:45,0,0,0
2004/3/7 2:00,0,0,0
2004/3/7 2:15,0,0,0
2004/3/7 2:30,0,0,0
2004/3/7 2:45,0,0,0
2004/3/7 3:00,0,0,0
2004/3/7 3:15,0,0,0
2004/3/7 3:30,0,0,0
2004/3/7 3:45,0,0,0
2004/3/7 4:00,0,0,0
2004/3/7 4:15,0,0,0
2004/3/7 4:30,0,0,0
2004/3/7 4:45,0,0,0
2004/3/7 5:00,0,0,0
2004/3/7 5:15,0,0,0
2004/3/7 5:30,0,0,0
2004/3/7 5:45,0,0,0
2004/3/7 6:00,0,0,0
2004/3/7 6:15,0,0,0
2004/3/7 6:30,0,0,0
2004/3/7 6:45,0,0,0
2004/3/7 7:00,0,0,0
2004/3/7 7:15,11.8498652,0.441999986,0
2004/3/7 7:30,28.55227661,1.064999967,0
2004/3/7 7:45,28.55227661,1.064999967,0
2004/3/7 8:00,28.55227661,1.064999967,0
2004/3/7 8:15,28.55227661,1.064999967,0
2004/3/7 8:30,6.970509052,0.25999999,0
2004/3/7 8:45,0,0,0
2004/3/7 9:00,0,0,0
2004/3/7 9:15,0,0,0
2004/3/7 9:30,0,0,0
2004/3/7 9:45,0,0,0
2004/3/7 10:00,0,0,0
2004/3/7 10:15,0,0,0
2004/3/7 10:30,0,0,0
2004/3/7 10:45,0,0,0
2004/3/7 11:00,0,0,0
2004/3/7 11:15,0,0,0
2004/3/7 11:30,0,0,0
2004/3/7 11:45,0,0,0
2004/3/7 12:00,0,0,0
2004/3/7 12:15,0,0,0
2004/3/7 12:30,0,0,0
2004/3/7 12:45,0,0,0
2004/3/7 13:00,0,0,0
2004/3/7 13:15,0,0,0
2004/3/7 13:30,0,0,0
2004/3/7 13:45,0,0,0
2004/3/7 14:00,0,0,0
2004/3/7 14:15,0,0,0
2004/3/7 14:30,0,0,0
2004/3/7 14:45,0,0,0
2004/3/7 15:00,0,0,0
2004/3/7 15:15,0,0,0
2004/3/7 15:30,0,0,0
2004/3/7 15:45,0,0,0
2004/3/7 16:00,0,0,0
2004/3/7 16:15,0,0,0
2004/3/7 16:30,0,0,0
2004/3/7 16:45,0,0,0
2004/3/7 17:00,0,0,0
2004/3/7 17:15,0,0,0
2004/3/7 17:30,0,0,0
2004/3/7 17:45,0,0,0
2004/3/7 18:00,0,0,0
2004/3/7 18:15,0,0,0
2004/3/7 18:30,0,0,0
2004/3/7 18:45,0,0,0
2004/3/7 19:00,0,0,0
2004/3/7 19:15,0,0,0
2004/3/7 19:30,0,0,0
2004/3/7 19:45,0,0,0
2004/3/7 20:00,8.525468826,0.317999989,0
2004/3/7 20:15,28.55227661,1.064999967,0
2004/3/7 20:30,28.55227661,1.064999967,0
2004/3/7 20:45,28.55227661,1.064999967,0
2004/3/7 21:00,28.55227661,1.064999967,0
2004/3/7 21:15,28.55227661,1.064999967,0
2004/3/7 21:30,28.55227661,1.064999967,0
2004/3/7 21:45,28.55227661,1.064999967,0
2004/3/7 22:00,28.49865723,1.062999963,0
2004/3/7 22:15,28.20375347,1.051999986,0
2004/3/7 22:30,28.4450388,1.060999989,0
2004/3/7 22:45,28.23056126,1.052999973,0
2004/3/7 23:00,28.31099224,1.055999994,0
2004/3/7 23:15,28.20375252,1.051999986,0
2004/3/7 23:30,28.31099129,1.055999994,0
2004/3/7 23:45,28.06970406,1.046999991,0
2004/3/8 0:00,29.49061584,1.099999994,0
2004/3/8 0:15,0,0,0
2004/3/8 0:30,0,0,0
2004/3/8 0:45,0,0,0
2004/3/8 1:00,0,0,0
2004/3/8 1:15,0,0,0
2004/3/8 1:30,0,0,0
2004/3/8 1:45,0,0,0
2004/3/8 2:00,0,0,0
2004/3/8 2:15,0,0,0
2004/3/8 2:30,0,0,0
2004/3/8 2:45,0,0,0
2004/3/8 3:00,0,0,0
2004/3/8 3:15,0,0,0
2004/3/8 3:30,0,0,0
2004/3/8 3:45,0,0,0
2004/3/8 4:00,0,0,0
2004/3/8 4:15,0,0,0
2004/3/8 4:30,0,0,0
2004/3/8 4:45,0,0,0
2004/3/8 5:00,0,0,0
2004/3/8 5:15,0,0,0
2004/3/8 5:30,0,0,0
2004/3/8 5:45,0,0,0
2004/3/8 6:00,0,0,0
2004/3/8 6:15,0,0,0
2004/3/8 6:30,8.257372856,0.307999998,0
2004/3/8 6:45,28.55227661,1.064999967,0
2004/3/8 7:00,28.55227661,1.064999967,0
2004/3/8 7:15,18.95442295,0.706999987,0
2004/3/8 7:30,0,0,0
2004/3/8 7:45,0,0,0
2004/3/8 8:00,0,0,0
2004/3/8 8:15,0,0,0
2004/3/8 8:30,0,0,0
2004/3/8 8:45,0,0,0
2004/3/8 9:00,0,0,0
2004/3/8 9:15,0,0,0
2004/3/8 9:30,0,0,0
2004/3/8 9:45,0,0,0
2004/3/8 10:00,0,0,0
2004/3/8 10:15,0,0,0
2004/3/8 10:30,0,0,0
2004/3/8 10:45,0,0,0
2004/3/8 11:00,0,0,0
2004/3/8 11:15,0,0,0
2004/3/8 11:30,0,0,0
2004/3/8 11:45,0,0,0
2004/3/8 12:00,0,0,0
2004/3/8 12:15,0,0,0
2004/3/8 12:30,0,0,0
2004/3/8 12:45,0,0,0
2004/3/8 13:00,0,0,0
2004/3/8 13:15,0,0,0
2004/3/8 13:30,0,0,0
2004/3/8 13:45,0,0,0
2004/3/8 14:00,0,0,0
2004/3/8 14:15,0,0,0
2004/3/8 14:30,0,0,0
2004/3/8 14:45,0,0,0
2004/3/8 15:00,0,0,0
2004/3/8 15:15,0,0,0
2004/3/8 15:30,0,0,0
2004/3/8 15:45,0,0,0
2004/3/8 16:00,0,0,0
2004/3/8 16:15,0,0,0
2004/3/8 16:30,0,0,0
2004/3/8 16:45,0,0,0
2004/3/8 17:00,0,0,0
2004/3/8 17:15,0,0,0
2004/3/8 17:30,0,0,0
2004/3/8 17:45,0,0,0
2004/3/8 18:00,0,0,0
2004/3/8 18:15,0,0,0
2004/3/8 18:30,0,0,0
2004/3/8 18:45,0,0,0
2004/3/8 19:00,0,0,0
2004/3/8 19:15,0,0,0
2004/3/8 19:30,0,0,0
2004/3/8 19:45,0,0,0
2004/3/8 20:00,0,0,0
2004/3/8 20:15,0,0,0
2004/3/8 20:30,0,0,0
2004/3/8 20:45,0,0,0
2004/3/8 21:00,0,0,0
2004/3/8 21:15,18.47184849,0.68899998,0
2004/3/8 21:30,28.55227661,1.064999967,0
2004/3/8 21:45,28.55227661,1.064999967,0
2004/3/8 22:00,28.55227661,1.064999967,0
2004/3/8 22:15,28.55227661,1.064999967,0
2004/3/8 22:30,28.55227661,1.064999967,0
2004/3/8 22:45,28.2841816,1.054999977,0
2004/3/8 23:00,28.55227661,1.064999967,0
2004/3/8 23:15,28.55227661,1.064999967,0
2004/3/8 23:30,28.55227661,1.064999967,0
2004/3/8 23:45,28.55227661,1.064999967,0
2004/3/9 0:00,15.36192942,0.572999984,0
2004/3/9 0:15,0,0,0
2004/3/9 0:30,0,0,0
2004/3/9 0:45,0,0,0
2004/3/9 1:00,0,0,0
2004/3/9 1:15,0,0,0
2004/3/9 1:30,0,0,0
2004/3/9 1:45,0,0,0
2004/3/9 2:00,0,0,0
2004/3/9 2:15,0,0,0
2004/3/9 2:30,0,0,0
2004/3/9 2:45,0,0,0
2004/3/9 3:00,0,0,0
2004/3/9 3:15,0,0,0
2004/3/9 3:30,0,0,0
2004/3/9 3:45,0,0,0
2004/3/9 4:00,0,0,0
2004/3/9 4:15,0,0,0
2004/3/9 4:30,0,0,0
2004/3/9 4:45,0,0,0
2004/3/9 5:00,0,0,0
2004/3/9 5:15,0,0,0
2004/3/9 5:30,0,0,0
2004/3/9 5:45,0,0,0
2004/3/9 6:00,0,0,0
2004/3/9 6:15,0,0,0
2004/3/9 6:30,5.254691601,0.195999995,0
2004/3/9 6:45,28.55227661,1.064999967,0
2004/3/9 7:00,28.55227661,1.064999967,0
2004/3/9 7:15,18.23056221,0.679999977,0
2004/3/9 7:30,0,0,0
2004/3/9 7:45,0,0,0
2004/3/9 8:00,0,0,0
2004/3/9 8:15,0,0,0
2004/3/9 8:30,0,0,0
2004/3/9 8:45,0,0,0
2004/3/9 9:00,0,0,0
2004/3/9 9:15,0,0,0
2004/3/9 9:30,0,0,0
2004/3/9 9:45,0,0,0
2004/3/9 10:00,0,0,0
2004/3/9 10:15,0,0,0
2004/3/9 10:30,0,0,0
2004/3/9 10:45,0,0,0
2004/3/9 11:00,0,0,0
2004/3/9 11:15,0,0,0
2004/3/9 11:30,0,0,0
2004/3/9 11:45,0,0,0
2004/3/9 12:00,0,0,0
2004/3/9 12:15,0,0,0
2004/3/9 12:30,0,0,0
2004/3/9 12:45,0,0,0
2004/3/9 13:00,0,0,0
2004/3/9 13:15,0,0,0
2004/3/9 13:30,0,0,0
2004/3/9 13:45,0,0,0
2004/3/9 14:00,0,0,0
2004/3/9 14:15,0,0,0
2004/3/9 14:30,0,0,0
2004/3/9 14:45,0,0,0
2004/3/9 15:00,0,0,0
2004/3/9 15:15,0,0,0
2004/3/9 15:30,0,0,0
2004/3/9 15:45,0,0,0
2004/3/9 16:00,0,0,0
2004/3/9 16:15,0,0,0
2004/3/9 16:30,0,0,0
2004/3/9 16:45,0,0,0
2004/3/9 17:00,0,0,0
2004/3/9 17:15,0,0,0
2004/3/9 17:30,0,0,0
2004/3/9 17:45,0,0,0
2004/3/9 18:00,0,0,0
2004/3/9 18:15,0,0,0
2004/3/9 18:30,0,0,0
2004/3/9 18:45,0,0,0
2004/3/9 19:00,0,0,0
2004/3/9 19:15,0,0,0
2004/3/9 19:30,0,0,0
2004/3/9 19:45,0,0,0
2004/3/9 20:00,0,0,0
2004/3/9 20:15,0,0,0
2004/3/9 20:30,0,0,0
2004/3/9 20:45,0,0,0
2004/3/9 21:00,0,0,0
2004/3/9 21:15,0,0,0
2004/3/9 21:30,0,0,0
2004/3/9 21:45,0,0,0
2004/3/9 22:00,0,0,0
2004/3/9 22:15,0,0,0
2004/3/9 22:30,0,0,0
2004/3/9 22:45,0,0,0
2004/3/9 23:00,22.81501198,0.850999981,0
2004/3/9 23:15,28.55227661,1.064999967,0
2004/3/9 23:30,28.55227661,1.064999967,0
2004/3/9 23:45,28.55227661,1.064999967,0
2004/3/10 0:00,28.55227661,1.064999967,0
2004/3/10 0:15,28.55227661,1.064999967,0
2004/3/10 0:30,28.55227661,1.064999967,0
2004/3/10 0:45,28.55227661,1.064999967,0
2004/3/10 1:00,6.407506466,0.238999993,0
2004/3/10 1:15,0,0,0
2004/3/10 1:30,0,0,0
2004/3/10 1:45,0,0,0
2004/3/10 2:00,0,0,0
2004/3/10 2:15,0,0,0
2004/3/10 2:30,0,0,0
2004/3/10 2:45,0,0,0
2004/3/10 3:00,0,0,0
2004/3/10 3:15,0,0,0
2004/3/10 3:30,0,0,0
2004/3/10 3:45,0,0,0
2004/3/10 4:00,0,0,0
2004/3/10 4:15,0,0,0
2004/3/10 4:30,0,0,0
2004/3/10 4:45,0,0,0
2004/3/10 5:00,0,0,0
2004/3/10 5:15,0,0,0
2004/3/10 5:30,0,0,0
2004/3/10 5:45,0,0,0
2004/3/10 6:00,0,0,0
2004/3/10 6:15,0,0,0
2004/3/10 6:30,0,0,0
2004/3/10 6:45,0,0,0
2004/3/10 7:00,9.785522879,0.364999998,0
2004/3/10 7:15,28.55227661,1.064999967,0
2004/3/10 7:30,16.24664784,0.605999976,0
2004/3/10 7:45,0,0,0
2004/3/10 8:00,0,0,0
2004/3/10 8:15,0,0,0
2004/3/10 8:30,0,0,0
2004/3/10 8:45,0,0,0
2004/3/10 9:00,0,0,0
2004/3/10 9:15,0,0,0
2004/3/10 9:30,0,0,0
2004/3/10 9:45,0,0,0
2004/3/10 10:00,0,0,0
2004/3/10 10:15,0,0,0
2004/3/10 10:30,0,0,0
2004/3/10 10:45,0,0,0
2004/3/10 11:00,0,0,0
2004/3/10 11:15,0,0,0
2004/3/10 11:30,0,0,0
2004/3/10 11:45,0,0,0
2004/3/10 12:00,0,0,0
2004/3/10 12:15,0,0,0
2004/3/10 12:30,0,0,0
2004/3/10 12:45,0,0,0
2004/3/10 13:00,0,0,0
2004/3/10 13:15,0,0,0
2004/3/10 13:30,0,0,0
2004/3/10 13:45,0,0,0
2004/3/10 14:00,0,0,0
2004/3/10 14:15,0,0,0
2004/3/10 14:30,0,0,0
2004/3/10 14:45,0,0,0
2004/3/10 15:00,0,0,0
2004/3/10 15:15,0,0,0
2004/3/10 15:30,0,0,0
2004/3/10 15:45,0,0,0
2004/3/10 16:00,0,0,0
2004/3/10 16:15,0,0,0
2004/3/10 16:30,0,0,0